Regional Weather Roundup
Issued by NWS

Home | Current Version | Previous Version | Graphics & Text | Print | Product List | Glossary On
Versions: 1 2 3 4 5 6 7 8 9 10 11 12 13 14 15 16 17 18 19 20 21 22 23 24 25 26 27 28 29 30 31 32 33 34 35 36 37 38 39 40 41 42 43 44 45 46 47 48 49 50
000
ASUS45 KTFX 220404
RWRMT
MONTANA HOURLY WEATHER ROUNDUP
NATIONAL WEATHER SERVICE GREAT FALLS MT
1004 PM MDT MON JUL 21 2014

NOTE: "FAIR" INDICATES FEW OR NO CLOUDS BELOW 12000 FEET WITH NO
SIGNIFICANT WEATHER AND/OR OBSTRUCTIONS TO VISIBILITY.

* THESE STATIONS ARE NOT UNDER NWS QUALITY CONTROL. THEY DO NOT
   REPORT WEATHER SUCH AS PRECIPITATION OR FOG.

MTZ001>007-043-220500-
WEST OF THE DIVIDE
CITY           SKY/WX    TMP DP  RH WIND       PRES   REMARKS
KALISPELL      CLEAR     66  39  37 CALM      30.03R
MISSOULA       PTCLDY    70  32  25 NW6       30.05R
BUTTE          CLOUDY    66  46  49 W8        30.16R
MULLAN PASS    PTCLDY    55  32  42 SE3       30.19R
* ESSEX        N/A       57  47  69 NE2        N/A
* LINCOLN      N/A       66  40  39 SW2G7      N/A
* LOOKOUT PASS N/A       56  40  55 N/A        N/A
* POLSON       N/A       62  32  32 SE1        N/A
* RONAN APT    CLEAR     63  54  73 N/A        N/A
* SEELEY LAKE  N/A       63  44  50 SE2G8      N/A
* THOMP F APT  CLEAR     68  46  45 S9G17      N/A
* YAAK HILL    N/A       64  44  48 N2         N/A
$$

MTZ008-052>055-220500-
SOUTHWEST MONTANA
CITY           SKY/WX    TMP DP  RH WIND       PRES   REMARKS
BOZEMAN        CLOUDY    72  52  49 S12       30.10R
DILLON         CLOUDY    72  43  35 S6        30.11R
* THREE FORKS  CLOUDY    70  70 100 N/A        N/A
* BOULDER HILL N/A       65  44  47 N8G13      N/A
* MONIDA PASS  N/A       65  38  37 N/A        N/A
* RAYNOLDS PAS N/A       59  38  46 SE12       N/A
* WHITEHALL    N/A       69  55  61 E2         N/A
* WISE RIVER   N/A       67  48  51 W5G14      N/A
$$

MTZ009>010-012-014-046-048-049-054-220500-
EAST SLOPES AND CENTRAL MONTANA
CITY           SKY/WX    TMP DP  RH WIND       PRES   REMARKS
CUT BANK       CLEAR     63  52  68 NE8       30.09R
GREAT FALLS    PTCLDY    68  41  38 NE7       30.07R
HELENA         CLOUDY    75  52  45 W3        30.06R
MALMSTROM AFB  PTCLDY    68  45  44 N5        30.08R
* CONRAD       PTCLDY    63  52  68 N/A        N/A
* DEARBORN     N/A       74  33  22 NE6        N/A
* EAST GLACIER N/A       56  43  62 NW3        N/A
* MONARCH      N/A       61  34  36 W1         N/A
* PENDROY      N/A       61  40  46 NW6        N/A
* ROGERS PASS  N/A       58  37  46 NW2        N/A
* SAINT MARY   N/A       56  41  57 S4         N/A
* SWEET GRASS  N/A       61  56  84 NE11       N/A
$$

MTZ011-013-016-021-035-040-045-047-050-051-220500-
NORTH CENTRAL MONTANA
CITY           SKY/WX    TMP DP  RH WIND       PRES   REMARKS
HAVRE          CLEAR     70  55  59 NE10      30.04R
LEWISTOWN      PTCLDY    63  57  81 E5        30.08R
* CHESTER      N/A       66  50  56 NE9        N/A
* DENTON       N/A       68  50  53 W6         N/A
* GEYSER       N/A       60  45  58 S5         N/A
* JUDITH GAP   N/A       63  59  87 N/A        N/A
* LOMA         N/A       70  51  51 VRB12G17    N/A
$$

MTZ017>020-022>027-061-062-220500-
NORTHEAST MONTANA
CITY           SKY/WX    TMP DP  RH WIND       PRES   REMARKS
GLASGOW        CLOUDY    68  54  61 E8        29.99R
GLENDIVE       PTCLDY    68  55  63 N8        30.03R
JORDAN         MOCLDY    72  54  53 E7        30.00R
SIDNEY         PTCLDY    64  57  78 W6        30.01R
WOLF POINT     MOCLDY    66  59  78 NE3       30.00R
* BEAVER HILL  N/A       66  58  76 NE4        N/A
* CIRCLE       N/A       69  62  79 NE3        N/A
* LINDSAY DVD  N/A       65  58  78 N8         N/A
* NAVAJO       N/A       63  60  90 SE3        N/A
$$

MTZ028>042-056>058-220500-
SOUTHCENTRAL AND SOUTHEAST MONTANA
CITY           SKY/WX    TMP DP  RH WIND       PRES   REMARKS
BAKER          PTCLDY    66  61  84 E5        30.05R
BILLINGS       CLOUDY    70  54  57 SW3       30.08R
LIVINGSTON     CLOUDY    68  48  49 SW5       30.12R
MILES CITY     MOCLDY    75  55  50 NW5       30.00R
* LAUREL APT   CLOUDY    66  50  56 N/A        N/A
* ROUNDUP APT  CLOUDY    63  57  81 N/A        N/A
* ALZADA       N/A       76  59  56 VRB7       N/A
* HYSHAM       N/A       65  52  63 E3         N/A
* LAME DEER    N/A       67  53  61 N6G12      N/A
* REED POINT   N/A       67  54  63 E1         N/A
* ROSCOE HILL  N/A       62  48  60 W3G9       N/A
$$

REGIONAL REPORTS...DAKOTAS
CITY           SKY/WX    TMP DP  RH WIND       PRES   REMARKS
WILLISTON      PTCLDY    63  55  75 N3        29.99R
DICKINSON      PTCLDY    63  61  93 N8        30.00R
CROSBY         N/A       59  59 100 NW5       30.01R
TIOGA          CLEAR     57  57 100 CALM      30.04R
WATFORD CITY   CLEAR     61  61 100 SE5       29.98R
BISMARCK       CLOUDY    66  63  90 NW10      29.94R
GRAND FORKS    RAIN      66  64  93 N35G55    29.63F
FARGO          LGT RAIN  70  66  87 SW7       29.74F
BUFFALO SD     CLEAR     68  61  78 N14       29.97R
RAPID CITY     CLEAR     73  55  53 N9        30.00R
$$

REGIONAL REPORTS...WYOMING/IDAHO/WASHINGTON
CITY           SKY/WX    TMP DP  RH WIND       PRES   REMARKS
GILLETTE       MOCLDY    66  57  73 NW8       30.11R
SHERIDAN       TSTM      66  57  73 W18       30.17R
CODY           MOCLDY    70  46  42 S5        30.18R
YELLOWSTONE LA CLOUDY    50  48  93 CALM      30.39S
SALMON         MOCLDY    72  46  40 SE6       30.01R
MULLAN PASS    PTCLDY    55  32  42 SE3       30.19S
SAND POINT     CLOUDY    61  52  72 CALM      30.03R
SPOKANE        CLOUDY    73  36  26 E5        30.00R

$$




USA.gov is the U.S. government's official web portal to all federal, state and local government web resources and services.